Volver al catálogo

OBJECT C

ActivoSSO
NORAD 100145·UNKNOWN·🇨🇳 China

Lanzado Jul 23, 2026 desde Jiuquan Satellite Launch Center

Loading…

Próximos Pases (próximas 24 horas)

TLE

ActualizadoSource: Space-Track

Época: Sep 14, 2026, 11:01 UTC

1 A0145U 26170C   26257.45964399  .00000975  00000-0  67893-4 0  9995
2 A0145  97.5573 263.3981 0017119  98.7662 261.5505 15.07661851  7918

Sigue OBJECT C en tiempo real con AllMySat

Download on the App Store